,,PA_Meas_PMT16A,,PR_Meas_QMR101_102,,RH_Meas_QMH101,,SR_Meas_QMS101,,TA_Meas_QMH101,,GenWind,,GenWind,
time,status,PA,status,PR,status,RH,status,SR,status,TA,status,DirAvg,status,SpdAvg,
2011-09-15, 00:00:04,VALID,918.73,VALID,0,VALID,97.9152,VALID,0,VALID,19.0232,VALID,112,VALID,1.12305,
2011-09-15, 00:01:04,VALID,918.709,VALID,0,VALID,97.9075,VALID,0,VALID,19.0023,VALID,125,VALID,1.06055,
2011-09-15, 00:02:04,VALID,918.672,VALID,0,VALID,97.9228,VALID,0,VALID,19.0008,VALID,109,VALID,1.25742,
2011-09-15, 00:03:04,VALID,918.661,VALID,0,VALID,97.9228,VALID,0,VALID,18.9604,VALID,100,VALID,1.04219,
2011-09-15, 00:04:04,VALID,918.609,VALID,0,VALID,97.9075,VALID,0,VALID,18.9814,VALID,131,VALID,1.72344,
2011-09-15, 00:05:04,VALID,918.606,VALID,0,VALID,97.9075,VALID,0,VALID,18.9814,VALID,127,VALID,0.648438,
2011-09-15, 00:06:04,VALID,918.587,VALID,0,VALID,97.9152,VALID,0,VALID,19.0442,VALID,118,VALID,0.982813,
2011-09-15, 00:07:04,VALID,918.63,VALID,0,VALID,97.9228,VALID,0,VALID,18.9842,VALID,102,VALID,1.47461,
2011-09-15, 00:08:04,VALID,918.584,VALID,0,VALID,97.9075,VALID,0,VALID,18.9619,VALID,88,VALID,1.36563,
2011-09-15, 00:09:04,VALID,918.531,VALID,0,VALID,97.9152,VALID,0,VALID,19.0023,VALID,105,VALID,1.11719,
2011-09-15, 00:10:04,VALID,918.533,VALID,0,VALID,97.8999,VALID,0.107441,VALID,19.0232,VALID,108,VALID,0.972266,
2011-09-15, 00:11:04,VALID,918.487,VALID,0,VALID,97.8999,VALID,0.107441,VALID,18.9799,VALID,97,VALID,1.17891,
2011-09-15, 00:12:04,VALID,918.476,VALID,0,VALID,97.9152,VALID,0.107441,VALID,18.9633,VALID,97,VALID,0.523828,
2011-09-15, 00:13:04,VALID,918.416,VALID,0,VALID,97.8999,VALID,0,VALID,18.9409,VALID,132,VALID,1.0168,
2011-09-15, 00:14:04,VALID,918.422,VALID,0,VALID,97.9075,VALID,0,VALID,18.9214,VALID,138,VALID,1.43555,
2011-09-15, 00:15:04,VALID,918.357,VALID,0,VALID,97.8847,VALID,0,VALID,18.9214,VALID,133,VALID,1.45742,
2011-09-15, 00:16:04,VALID,918.377,VALID,0,VALID,97.9075,VALID,0,VALID,18.9604,VALID,152,VALID,1.44023,
2011-09-15, 00:17:04,VALID,918.386,VALID,0,VALID,97.8999,VALID,0,VALID,18.959,VALID,141,VALID,0.467969,
2011-09-15, 00:18:04,VALID,918.406,VALID,0,VALID,97.9152,VALID,0,VALID,18.9633,VALID,142,VALID,0.757422,
2011-09-15, 00:19:04,VALID,918.401,VALID,0,VALID,97.8923,VALID,0.107441,VALID,19.0037,VALID,140,VALID,0.453516,
2011-09-15, 00:20:04,VALID,918.405,VALID,0,VALID,97.8999,VALID,0,VALID,18.9409,VALID,140,VALID,0.700781,
2011-09-15, 00:21:04,VALID,918.354,VALID,0,VALID,97.8999,VALID,0.107441,VALID,18.9619,VALID,281,VALID,1.0707,
2011-09-15, 00:22:04,VALID,918.399,VALID,0,VALID,97.8923,VALID,0,VALID,19.0008,VALID,277,VALID,1.05703,
2011-09-15, 00:23:04,VALID,918.392,VALID,0,VALID,97.8923,VALID,0.107441,VALID,18.959,VALID,277,VALID,0.616016,
2011-09-15, 00:24:04,VALID,918.415,VALID,0,VALID,97.8923,VALID,0.107441,VALID,18.9409,VALID,277,VALID,0.396484,
2011-09-15, 00:25:04,VALID,918.429,VALID,0,VALID,97.9152,VALID,0.107441,VALID,18.9424,VALID,277,VALID,0,
2011-09-15, 00:26:04,VALID,918.444,VALID,0,VALID,97.9152,VALID,0.107441,VALID,18.9814,VALID,277,VALID,0.0355469,
2011-09-15, 00:27:04,VALID,918.433,VALID,0,VALID,97.9228,VALID,0.107441,VALID,18.9619,VALID,277,VALID,0.466797,
2011-09-15, 00:28:04,VALID,918.443,VALID,0,VALID,97.8999,VALID,0.107441,VALID,18.9633,VALID,277,VALID,0.6625,
2011-09-15, 00:29:04,VALID,918.409,VALID,0,VALID,97.9152,VALID,0,VALID,18.9214,VALID,277,VALID,0.665625,
2011-09-15, 00:30:04,VALID,918.416,VALID,0,VALID,97.9228,VALID,0.107441,VALID,18.9019,VALID,277,VALID,0.478516,
2011-09-15, 00:31:04,VALID,918.363,VALID,0,VALID,97.9456,VALID,0,VALID,18.9034,VALID,277,VALID,0,
2011-09-15, 00:32:04,VALID,918.334,VALID,0,VALID,97.9228,VALID,0,VALID,18.9229,VALID,277,VALID,0.0328125,
2011-09-15, 00:33:04,VALID,918.355,VALID,0,VALID,97.9152,VALID,0.107441,VALID,18.9214,VALID,277,VALID,0,
2011-09-15, 00:34:04,VALID,918.334,VALID,0,VALID,97.938,VALID,0,VALID,18.8824,VALID,277,VALID,0.473047,
2011-09-15, 00:35:04,VALID,918.343,VALID,0,VALID,97.9228,VALID,0.107441,VALID,18.8434,VALID,277,VALID,0.798828,
2011-09-15, 00:36:04,VALID,918.371,VALID,0,VALID,97.938,VALID,0.107441,VALID,18.8644,VALID,277,VALID,1.16016,
2011-09-15, 00:37:04,VALID,918.4,VALID,0,VALID,97.938,VALID,0,VALID,18.803,VALID,135,VALID,1.10508,
2011-09-15, 00:38:04,VALID,918.401,VALID,0,VALID,97.9304,VALID,0.107441,VALID,18.8211,VALID,135,VALID,1.24102,
2011-09-15, 00:39:04,VALID,918.411,VALID,0,VALID,97.9456,VALID,0,VALID,18.8434,VALID,145,VALID,1.29258,
2011-09-15, 00:40:04,VALID,918.351,VALID,0,VALID,97.9304,VALID,0,VALID,18.8644,VALID,144,VALID,0.933594,
2011-09-15, 00:41:04,VALID,918.332,VALID,0,VALID,97.9152,VALID,0,VALID,18.8644,VALID,158,VALID,1.24258,
2011-09-15, 00:42:04,VALID,918.354,VALID,0,VALID,97.9152,VALID,0,VALID,18.8658,VALID,132,VALID,1.04258,
2011-09-15, 00:43:04,VALID,918.319,VALID,0,VALID,97.8923,VALID,0,VALID,18.8853,VALID,134,VALID,0.672656,
2011-09-15, 00:44:04,VALID,918.332,VALID,0,VALID,97.9304,VALID,0,VALID,18.8254,VALID,138,VALID,1.00117,
2011-09-15, 00:45:04,VALID,918.31,VALID,0,VALID,97.9228,VALID,0,VALID,18.9077,VALID,138,VALID,0.800391,
2011-09-15, 00:46:04,VALID,918.319,VALID,0,VALID,97.9075,VALID,0,VALID,18.8853,VALID,138,VALID,1.14883,
2011-09-15, 00:47:04,VALID,918.335,VALID,0,VALID,97.9228,VALID,0,VALID,18.8449,VALID,138,VALID,0.846875,
2011-09-15, 00:48:04,VALID,918.338,VALID,0,VALID,97.8999,VALID,0,VALID,18.8449,VALID,138,VALID,0.710938,
2011-09-15, 00:49:04,VALID,918.339,VALID,0,VALID,97.9228,VALID,0,VALID,18.8254,VALID,135,VALID,1.14883,
2011-09-15, 00:50:04,VALID,918.334,VALID,0,VALID,97.9075,VALID,0,VALID,18.8254,VALID,136,VALID,0.819531,
2011-09-15, 00:51:04,VALID,918.34,VALID,0,VALID,97.8847,VALID,0,VALID,18.8045,VALID,136,VALID,0.291797,
2011-09-15, 00:52:04,VALID,918.311,VALID,0,VALID,97.9152,VALID,0,VALID,18.8254,VALID,152,VALID,1.46523,
2011-09-15, 00:53:04,VALID,918.346,VALID,0,VALID,97.9152,VALID,0,VALID,18.8658,VALID,152,VALID,0.949609,
2011-09-15, 00:54:04,VALID,918.333,VALID,0,VALID,97.9152,VALID,0,VALID,18.8449,VALID,129,VALID,1.12852,
2011-09-15, 00:55:04,VALID,918.302,VALID,0,VALID,97.8999,VALID,0,VALID,18.8449,VALID,120,VALID,1.04375,
2011-09-15, 00:56:04,VALID,918.285,VALID,0,VALID,97.8923,VALID,0,VALID,18.8867,VALID,136,VALID,0.854297,
2011-09-15, 00:57:04,VALID,918.286,VALID,0,VALID,97.8847,VALID,0,VALID,18.8658,VALID,136,VALID,0.847656,
2011-09-15, 00:58:04,VALID,918.282,VALID,0,VALID,97.9075,VALID,0,VALID,18.8644,VALID,136,VALID,1.55039,
2011-09-15, 00:59:04,VALID,918.284,VALID,0,VALID,97.8999,VALID,0,VALID,18.8839,VALID,129,VALID,1.59766,
2011-09-15, 01:00:04,VALID,918.305,VALID,0,VALID,97.8847,VALID,0,VALID,18.9048,VALID,129,VALID,1.42266,
2011-09-15, 01:01:04,VALID,918.256,VALID,0,VALID,97.8694,VALID,0,VALID,18.9243,VALID,129,VALID,1.25664,
2011-09-15, 01:02:04,VALID,918.264,VALID,0,VALID,97.8923,VALID,0,VALID,18.9034,VALID,129,VALID,1.30898,
2011-09-15, 01:03:04,VALID,918.268,VALID,0,VALID,97.8999,VALID,0,VALID,18.9633,VALID,129,VALID,1.32031,
2011-09-15, 01:04:04,VALID,918.312,VALID,0,VALID,97.9152,VALID,0,VALID,18.9424,VALID,129,VALID,0.609375,
2011-09-15, 01:05:04,VALID,918.33,VALID,0,VALID,97.877,VALID,0,VALID,18.9633,VALID,129,VALID,0.703906,
2011-09-15, 01:06:04,VALID,918.336,VALID,0,VALID,97.877,VALID,0,VALID,18.9424,VALID,129,VALID,0.497656,
2011-09-15, 01:07:04,VALID,918.337,VALID,0,VALID,97.877,VALID,0,VALID,18.9424,VALID,129,VALID,0.802344,
2011-09-15, 01:08:04,VALID,918.327,VALID,0,VALID,97.8847,VALID,0,VALID,18.9424,VALID,129,VALID,0.849219,
2011-09-15, 01:09:04,VALID,918.342,VALID,0,VALID,97.8618,VALID,0,VALID,18.9034,VALID,129,VALID,0.485938,
2011-09-15, 01:10:04,VALID,918.344,VALID,0,VALID,97.877,VALID,0,VALID,18.9438,VALID,129,VALID,0.709766,
2011-09-15, 01:11:04,VALID,918.331,VALID,0,VALID,97.877,VALID,0,VALID,18.9034,VALID,129,VALID,0.756641,
2011-09-15, 01:12:04,VALID,918.316,VALID,0,VALID,97.8542,VALID,0,VALID,18.9034,VALID,129,VALID,0.745703,
2011-09-15, 01:13:04,VALID,918.286,VALID,0,VALID,97.8694,VALID,0,VALID,18.8839,VALID,129,VALID,0.563672,
2011-09-15, 01:14:04,VALID,918.267,VALID,0,VALID,97.877,VALID,0,VALID,18.9048,VALID,83,VALID,0.28125,
2011-09-15, 01:15:04,VALID,918.24,VALID,0,VALID,97.8694,VALID,0,VALID,18.9467,VALID,83,VALID,0.579297,
2011-09-15, 01:16:04,VALID,918.238,VALID,0,VALID,97.8847,VALID,0,VALID,18.8225,VALID,83,VALID,0.395703,
2011-09-15, 01:17:04,VALID,918.244,VALID,0,VALID,97.8694,VALID,0,VALID,18.8658,VALID,83,VALID,0.578516,
2011-09-15, 01:18:04,VALID,918.255,VALID,0,VALID,97.877,VALID,0,VALID,18.8463,VALID,83,VALID,0.619922,
2011-09-15, 01:19:04,VALID,918.232,VALID,0,VALID,97.877,VALID,0,VALID,18.8059,VALID,83,VALID,0.444922,
2011-09-15, 01:20:04,VALID,918.175,VALID,0,VALID,97.8694,VALID,0,VALID,18.8073,VALID,84,VALID,0.390625,
2011-09-15, 01:21:04,VALID,918.198,VALID,0,VALID,97.8923,VALID,0,VALID,18.8073,VALID,133,VALID,0.644922,
2011-09-15, 01:22:04,VALID,918.151,VALID,0,VALID,97.8847,VALID,0,VALID,18.7864,VALID,133,VALID,0.658203,
2011-09-15, 01:23:04,VALID,918.143,VALID,0,VALID,97.877,VALID,0,VALID,18.785,VALID,142,VALID,1.21094,
2011-09-15, 01:24:04,VALID,918.109,VALID,0,VALID,97.8847,VALID,0,VALID,18.7864,VALID,172,VALID,1.09922,
2011-09-15, 01:25:04,VALID,918.1,VALID,0,VALID,97.8694,VALID,0,VALID,18.7446,VALID,149,VALID,1.29375,
2011-09-15, 01:26:04,VALID,918.082,VALID,0,VALID,97.8618,VALID,0,VALID,18.746,VALID,144,VALID,0.892187,
2011-09-15, 01:27:04,VALID,918.104,VALID,0,VALID,97.8694,VALID,0,VALID,18.7655,VALID,173,VALID,1.32773,
2011-09-15, 01:28:04,VALID,918.103,VALID,0,VALID,97.8542,VALID,0,VALID,18.8073,VALID,181,VALID,1.17891,
2011-09-15, 01:29:04,VALID,918.076,VALID,0,VALID,97.8847,VALID,0,VALID,18.7864,VALID,164,VALID,1.31445,
2011-09-15, 01:30:04,VALID,918.043,VALID,0,VALID,97.8389,VALID,0,VALID,18.7655,VALID,158,VALID,0.948438,
2011-09-15, 01:31:04,VALID,918.053,VALID,0,VALID,97.8618,VALID,0,VALID,18.746,VALID,153,VALID,0.799609,
2011-09-15, 01:32:04,VALID,918.037,VALID,0,VALID,97.8542,VALID,0,VALID,18.7655,VALID,161,VALID,0.753516,
2011-09-15, 01:33:04,VALID,918.015,VALID,0,VALID,97.8237,VALID,0,VALID,18.8087,VALID,160,VALID,1.09805,
2011-09-15, 01:34:04,VALID,917.99,VALID,0,VALID,97.8389,VALID,0,VALID,18.8073,VALID,169,VALID,1.10859,
2011-09-15, 01:35:04,VALID,917.981,VALID,0,VALID,97.8618,VALID,0,VALID,18.8059,VALID,170,VALID,0.838672,
2011-09-15, 01:36:04,VALID,917.972,VALID,0,VALID,97.8389,VALID,0,VALID,18.8477,VALID,163,VALID,1.09492,
2011-09-15, 01:37:04,VALID,917.947,VALID,0,VALID,97.8618,VALID,0,VALID,18.8492,VALID,137,VALID,0.598047,
2011-09-15, 01:38:04,VALID,917.954,VALID,0,VALID,97.8542,VALID,0,VALID,18.8449,VALID,148,VALID,0.800391,
2011-09-15, 01:39:04,VALID,917.959,VALID,0,VALID,97.8389,VALID,0,VALID,18.8463,VALID,159,VALID,0.818359,
2011-09-15, 01:40:04,VALID,917.949,VALID,0,VALID,97.8389,VALID,0,VALID,18.8463,VALID,162,VALID,1.20938,
2011-09-15, 01:41:04,VALID,917.961,VALID,0,VALID,97.8618,VALID,0,VALID,18.8059,VALID,162,VALID,0.647266,
2011-09-15, 01:42:04,VALID,917.978,VALID,0,VALID,97.8542,VALID,0,VALID,18.8268,VALID,154,VALID,1.04062,
2011-09-15, 01:43:04,VALID,917.938,VALID,0,VALID,97.8465,VALID,0,VALID,18.785,VALID,155,VALID,0.607031,
2011-09-15, 01:44:04,VALID,917.95,VALID,0,VALID,97.8465,VALID,0,VALID,18.8059,VALID,155,VALID,0.282031,
2011-09-15, 01:45:04,VALID,917.994,VALID,0,VALID,97.8618,VALID,0,VALID,18.8687,VALID,155,VALID,0.803125,
2011-09-15, 01:46:04,VALID,917.982,VALID,0,VALID,97.8389,VALID,0,VALID,18.8059,VALID,155,VALID,0.510547,
2011-09-15, 01:47:04,VALID,917.972,VALID,0,VALID,97.8389,VALID,0,VALID,18.8059,VALID,155,VALID,0.903516,
2011-09-15, 01:48:04,VALID,917.935,VALID,0,VALID,97.8618,VALID,0,VALID,18.8268,VALID,160,VALID,1.11914,
2011-09-15, 01:49:04,VALID,917.94,VALID,0,VALID,97.8542,VALID,0,VALID,18.8268,VALID,170,VALID,0.980078,
2011-09-15, 01:50:04,VALID,917.924,VALID,0,VALID,97.8618,VALID,0,VALID,18.8073,VALID,165,VALID,0.873438,
2011-09-15, 01:51:04,VALID,917.942,VALID,0,VALID,97.8465,VALID,0,VALID,18.8477,VALID,159,VALID,0.883594,
2011-09-15, 01:52:04,VALID,917.899,VALID,0,VALID,97.877,VALID,0,VALID,18.8059,VALID,166,VALID,1.36406,
2011-09-15, 01:53:04,VALID,917.887,VALID,0,VALID,97.8618,VALID,0,VALID,18.8268,VALID,157,VALID,0.907422,
2011-09-15, 01:54:04,VALID,917.897,VALID,0,VALID,97.8694,VALID,0,VALID,18.8268,VALID,157,VALID,0.531641,
2011-09-15, 01:55:04,VALID,917.897,VALID,0,VALID,97.8618,VALID,0,VALID,18.8268,VALID,168,VALID,1.01875,
2011-09-15, 01:56:04,VALID,917.878,VALID,0,VALID,97.8694,VALID,0,VALID,18.8254,VALID,160,VALID,0.510938,
2011-09-15, 01:57:04,VALID,917.83,VALID,0,VALID,97.877,VALID,0,VALID,18.8254,VALID,145,VALID,0.9375,
2011-09-15, 01:58:04,VALID,917.832,VALID,0,VALID,97.8847,VALID,0,VALID,18.8658,VALID,146,VALID,0.529297,
2011-09-15, 01:59:04,VALID,917.81,VALID,0,VALID,97.8694,VALID,0,VALID,18.8853,VALID,158,VALID,1.15977,
2011-09-15, 02:00:04,VALID,917.789,VALID,0,VALID,97.8694,VALID,0,VALID,18.8644,VALID,176,VALID,1.32813,
2011-09-15, 02:01:04,VALID,917.787,VALID,0,VALID,97.8465,VALID,0,VALID,18.9048,VALID,180,VALID,0.89375,
2011-09-15, 02:02:04,VALID,917.738,VALID,0,VALID,97.8389,VALID,0,VALID,18.8658,VALID,175,VALID,1.11094,
2011-09-15, 02:03:04,VALID,917.747,VALID,0,VALID,97.8542,VALID,0,VALID,18.8658,VALID,156,VALID,0.903125,
2011-09-15, 02:04:04,VALID,917.736,VALID,0,VALID,97.8618,VALID,0,VALID,18.8644,VALID,148,VALID,0.829687,
2011-09-15, 02:05:04,VALID,917.737,VALID,0,VALID,97.8618,VALID,0,VALID,19.0095,VALID,148,VALID,1.07656,
2011-09-15, 02:06:04,VALID,917.732,VALID,0,VALID,97.8542,VALID,0,VALID,18.8629,VALID,163,VALID,0.866016,
2011-09-15, 02:07:04,VALID,917.751,VALID,0,VALID,97.8694,VALID,0,VALID,18.8644,VALID,158,VALID,1.03242,
2011-09-15, 02:08:04,VALID,917.749,VALID,0,VALID,97.8542,VALID,0,VALID,18.9034,VALID,157,VALID,0.828516,
2011-09-15, 02:09:04,VALID,917.773,VALID,0,VALID,97.8694,VALID,0,VALID,18.8853,VALID,157,VALID,0.781641,
2011-09-15, 02:10:04,VALID,917.743,VALID,0,VALID,97.8618,VALID,0,VALID,18.8824,VALID,157,VALID,1.09102,
2011-09-15, 02:11:04,VALID,917.764,VALID,0,VALID,97.8542,VALID,0.107441,VALID,18.8629,VALID,157,VALID,0.997266,
2011-09-15, 02:12:04,VALID,917.734,VALID,0,VALID,97.8618,VALID,0,VALID,18.8839,VALID,162,VALID,1.14219,
2011-09-15, 02:13:04,VALID,917.74,VALID,0,VALID,97.8237,VALID,0.107441,VALID,18.8839,VALID,176,VALID,0.725781,
2011-09-15, 02:14:04,VALID,917.723,VALID,0,VALID,97.8237,VALID,0.107441,VALID,18.9019,VALID,175,VALID,1.6332,
2011-09-15, 02:15:04,VALID,917.7,VALID,0,VALID,97.8389,VALID,0,VALID,18.9005,VALID,175,VALID,1.17695,
2011-09-15, 02:16:04,VALID,917.706,VALID,0,VALID,97.8542,VALID,0.107441,VALID,18.9019,VALID,171,VALID,1.49141,
2011-09-15, 02:17:04,VALID,917.656,VALID,0,VALID,97.8389,VALID,0.107441,VALID,18.8615,VALID,178,VALID,1.57773,
2011-09-15, 02:18:04,VALID,917.653,VALID,0,VALID,97.8389,VALID,0,VALID,18.9229,VALID,176,VALID,1.05664,
2011-09-15, 02:19:04,VALID,917.617,VALID,0,VALID,97.8237,VALID,0,VALID,18.9229,VALID,176,VALID,1.12383,
2011-09-15, 02:20:04,VALID,917.61,VALID,0,VALID,97.8313,VALID,0.107441,VALID,18.9019,VALID,176,VALID,1.20703,
2011-09-15, 02:21:04,VALID,917.623,VALID,0,VALID,97.8313,VALID,0.107441,VALID,18.9229,VALID,176,VALID,0.531641,
2011-09-15, 02:22:04,VALID,917.621,VALID,0,VALID,97.8313,VALID,0.107441,VALID,18.9229,VALID,171,VALID,1.08711,
2011-09-15, 02:23:04,VALID,917.586,VALID,0,VALID,97.816,VALID,0,VALID,18.9438,VALID,171,VALID,1.25391,
2011-09-15, 02:24:04,VALID,917.572,VALID,0,VALID,97.8313,VALID,0,VALID,18.9019,VALID,171,VALID,1.35781,
2011-09-15, 02:25:04,VALID,917.587,VALID,0,VALID,97.8084,VALID,0,VALID,18.9243,VALID,171,VALID,0.808203,
2011-09-15, 02:26:04,VALID,917.55,VALID,0,VALID,97.8084,VALID,0,VALID,18.9034,VALID,171,VALID,1.25508,
2011-09-15, 02:27:04,VALID,917.558,VALID,0,VALID,97.816,VALID,0,VALID,18.9243,VALID,171,VALID,0.712109,
2011-09-15, 02:28:04,VALID,917.552,VALID,0,VALID,97.816,VALID,0,VALID,18.8615,VALID,171,VALID,0.858594,
2011-09-15, 02:29:04,VALID,917.568,VALID,0,VALID,97.8084,VALID,0,VALID,18.9229,VALID,171,VALID,1.09375,
2011-09-15, 02:30:04,VALID,917.538,VALID,0,VALID,97.8008,VALID,0,VALID,18.9034,VALID,171,VALID,0.610547,
2011-09-15, 02:31:04,VALID,917.553,VALID,0,VALID,97.8237,VALID,0,VALID,18.9048,VALID,158,VALID,0.697656,
2011-09-15, 02:32:04,VALID,917.549,VALID,0,VALID,97.8008,VALID,0,VALID,18.9243,VALID,158,VALID,0.658203,
2011-09-15, 02:33:04,VALID,917.564,VALID,0,VALID,97.7856,VALID,0,VALID,18.9048,VALID,158,VALID,0.192969,
2011-09-15, 02:34:04,VALID,917.552,VALID,0,VALID,97.7779,VALID,0,VALID,18.9257,VALID,161,VALID,0.591016,
2011-09-15, 02:35:04,VALID,917.541,VALID,0,VALID,97.7856,VALID,0,VALID,18.8853,VALID,161,VALID,0.638672,
2011-09-15, 02:36:04,VALID,917.549,VALID,0,VALID,97.7932,VALID,0,VALID,18.8644,VALID,140,VALID,1.29023,
2011-09-15, 02:37:04,VALID,917.549,VALID,0,VALID,97.8084,VALID,0,VALID,18.8839,VALID,163,VALID,0.905078,
2011-09-15, 02:38:04,VALID,917.55,VALID,0,VALID,97.7779,VALID,0,VALID,18.9676,VALID,171,VALID,1.63437,
2011-09-15, 02:39:04,VALID,917.528,VALID,0,VALID,97.7856,VALID,0,VALID,18.9048,VALID,167,VALID,1.3168,
2011-09-15, 02:40:04,VALID,917.497,VALID,0,VALID,97.7856,VALID,0,VALID,18.8839,VALID,162,VALID,0.856641,
2011-09-15, 02:41:04,VALID,917.528,VALID,0,VALID,97.7932,VALID,0,VALID,18.9034,VALID,159,VALID,0.438672,
2011-09-15, 02:42:04,VALID,917.517,VALID,0,VALID,97.7779,VALID,0,VALID,18.9034,VALID,159,VALID,0.506641,
2011-09-15, 02:43:04,VALID,917.52,VALID,0,VALID,97.7627,VALID,0,VALID,18.9034,VALID,157,VALID,0.740234,
2011-09-15, 02:44:04,VALID,917.509,VALID,0,VALID,97.7932,VALID,0,VALID,18.9243,VALID,155,VALID,1.58086,
2011-09-15, 02:45:04,VALID,917.495,VALID,0,VALID,97.7703,VALID,0,VALID,18.8434,VALID,146,VALID,1.00312,
2011-09-15, 02:46:04,VALID,917.524,VALID,0,VALID,97.7627,VALID,0,VALID,19.0081,VALID,144,VALID,1.09883,
2011-09-15, 02:47:04,VALID,917.517,VALID,0,VALID,97.7703,VALID,0,VALID,18.9048,VALID,144,VALID,0.783203,
2011-09-15, 02:48:04,VALID,917.535,VALID,0,VALID,97.7627,VALID,0,VALID,18.9048,VALID,144,VALID,0.45,
2011-09-15, 02:49:04,VALID,917.515,VALID,0,VALID,97.7779,VALID,0,VALID,18.8644,VALID,144,VALID,0.676562,
2011-09-15, 02:50:04,VALID,917.539,VALID,0,VALID,97.7551,VALID,0,VALID,18.8658,VALID,144,VALID,0.502344,
2011-09-15, 02:51:04,VALID,917.506,VALID,0,VALID,97.7779,VALID,0,VALID,18.8853,VALID,144,VALID,1.21406,
2011-09-15, 02:52:04,VALID,917.541,VALID,0,VALID,97.7779,VALID,0,VALID,18.8463,VALID,144,VALID,1.07109,
2011-09-15, 02:53:04,VALID,917.538,VALID,0,VALID,97.7627,VALID,0,VALID,18.8073,VALID,75,VALID,1.52852,
2011-09-15, 02:54:04,VALID,917.552,VALID,0,VALID,97.7551,VALID,0,VALID,18.7474,VALID,59,VALID,1.34023,
2011-09-15, 02:55:04,VALID,917.572,VALID,0,VALID,97.7627,VALID,0,VALID,18.7084,VALID,58,VALID,1.14141,
2011-09-15, 02:56:04,VALID,917.537,VALID,0,VALID,97.7703,VALID,0,VALID,18.6889,VALID,58,VALID,1.25234,
2011-09-15, 02:57:04,VALID,917.529,VALID,0,VALID,97.7703,VALID,0,VALID,18.6889,VALID,50,VALID,1.94883,
2011-09-15, 02:58:04,VALID,917.529,VALID,0,VALID,97.7779,VALID,0,VALID,18.6499,VALID,37,VALID,1.86445,
2011-09-15, 02:59:04,VALID,917.535,VALID,0,VALID,97.8008,VALID,0,VALID,18.7098,VALID,37,VALID,1.62656,
2011-09-15, 03:00:04,VALID,917.502,VALID,0,VALID,97.8084,VALID,0,VALID,18.7293,VALID,38,VALID,1.65,
2011-09-15, 03:01:04,VALID,917.506,VALID,0,VALID,97.8084,VALID,0,VALID,18.7293,VALID,27,VALID,1.57031,
2011-09-15, 03:02:04,VALID,917.508,VALID,0,VALID,97.7932,VALID,0,VALID,18.7293,VALID,37,VALID,1.69687,
2011-09-15, 03:03:04,VALID,917.478,VALID,0,VALID,97.816,VALID,0,VALID,18.7488,VALID,38,VALID,1.51563,
2011-09-15, 03:04:04,VALID,917.474,VALID,0,VALID,97.8313,VALID,0,VALID,18.7488,VALID,38,VALID,1.5,
2011-09-15, 03:05:04,VALID,917.479,VALID,0,VALID,97.8237,VALID,0,VALID,18.7279,VALID,76,VALID,1.22422,
2011-09-15, 03:06:04,VALID,917.497,VALID,0,VALID,97.8465,VALID,0,VALID,18.7279,VALID,104,VALID,1.63281,
2011-09-15, 03:07:04,VALID,917.491,VALID,0,VALID,97.8237,VALID,0,VALID,18.7683,VALID,104,VALID,1.19531,
2011-09-15, 03:08:04,VALID,917.491,VALID,0,VALID,97.8237,VALID,0,VALID,18.7669,VALID,127,VALID,1.41992,
2011-09-15, 03:09:04,VALID,917.491,VALID,0,VALID,97.8008,VALID,0,VALID,18.8268,VALID,115,VALID,1.74688,
2011-09-15, 03:10:04,VALID,917.493,VALID,0,VALID,97.7779,VALID,0,VALID,18.8254,VALID,130,VALID,1.38281,
2011-09-15, 03:11:04,VALID,917.535,VALID,0,VALID,97.7779,VALID,0,VALID,18.8254,VALID,116,VALID,1.55313,
2011-09-15, 03:12:04,VALID,917.513,VALID,0,VALID,97.7779,VALID,0,VALID,18.8449,VALID,103,VALID,1.1168,
2011-09-15, 03:13:04,VALID,917.538,VALID,0,VALID,97.7474,VALID,0,VALID,18.8853,VALID,103,VALID,1.35859,
2011-09-15, 03:14:04,VALID,917.513,VALID,0,VALID,97.7551,VALID,0,VALID,18.8254,VALID,110,VALID,1.0957,
2011-09-15, 03:15:04,VALID,917.538,VALID,0,VALID,97.7246,VALID,0,VALID,18.8672,VALID,119,VALID,0.748438,
2011-09-15, 03:16:04,VALID,917.506,VALID,0,VALID,97.7246,VALID,0,VALID,18.8059,VALID,149,VALID,1.06484,
2011-09-15, 03:17:04,VALID,917.499,VALID,0,VALID,97.7093,VALID,0,VALID,18.8254,VALID,142,VALID,1.22891,
2011-09-15, 03:18:04,VALID,917.505,VALID,0,VALID,97.7246,VALID,0,VALID,18.8658,VALID,142,VALID,0.892187,
2011-09-15, 03:19:04,VALID,917.474,VALID,0,VALID,97.6712,VALID,0,VALID,18.8658,VALID,128,VALID,1.32227,
2011-09-15, 03:20:04,VALID,917.476,VALID,0,VALID,97.6483,VALID,0,VALID,18.8225,VALID,117,VALID,1.19141,
2011-09-15, 03:21:04,VALID,917.466,VALID,0,VALID,97.6331,VALID,0,VALID,18.8853,VALID,117,VALID,1.01797,
2011-09-15, 03:22:04,VALID,917.456,VALID,0,VALID,97.6026,VALID,0,VALID,18.8644,VALID,117,VALID,1.02539,
2011-09-15, 03:23:04,VALID,917.475,VALID,0,VALID,97.6102,VALID,0,VALID,18.8853,VALID,117,VALID,0.739062,
2011-09-15, 03:24:04,VALID,917.444,VALID,0,VALID,97.5873,VALID,0,VALID,18.8658,VALID,117,VALID,0.863672,
2011-09-15, 03:25:04,VALID,917.449,VALID,0,VALID,97.5645,VALID,0,VALID,18.8644,VALID,117,VALID,0.8875,
2011-09-15, 03:26:04,VALID,917.47,VALID,0,VALID,97.5645,VALID,0,VALID,18.8449,VALID,117,VALID,0.958984,
2011-09-15, 03:27:04,VALID,917.454,VALID,0,VALID,97.5569,VALID,0,VALID,18.8449,VALID,122,VALID,1.15547,
2011-09-15, 03:28:04,VALID,917.497,VALID,0,VALID,97.5035,VALID,0,VALID,18.9048,VALID,124,VALID,1.37266,
2011-09-15, 03:29:04,VALID,917.503,VALID,0,VALID,97.4806,VALID,0,VALID,18.9438,VALID,130,VALID,1.18672,
2011-09-15, 03:30:04,VALID,917.49,VALID,0,VALID,97.4349,VALID,0,VALID,18.9424,VALID,130,VALID,1.3043,
2011-09-15, 03:31:04,VALID,917.509,VALID,0,VALID,97.412,VALID,0,VALID,18.9424,VALID,130,VALID,1.28828,
2011-09-15, 03:32:04,VALID,917.502,VALID,0,VALID,97.3663,VALID,0,VALID,18.9424,VALID,130,VALID,1.53437,
2011-09-15, 03:33:04,VALID,917.494,VALID,0,VALID,97.3129,VALID,0,VALID,18.9814,VALID,130,VALID,1.11328,
2011-09-15, 03:34:04,VALID,917.487,VALID,0,VALID,97.2138,VALID,0,VALID,18.9619,VALID,136,VALID,0.990234,
2011-09-15, 03:35:04,VALID,917.495,VALID,0,VALID,97.1452,VALID,0,VALID,18.9814,VALID,136,VALID,0.935156,
2011-09-15, 03:36:04,VALID,917.495,VALID,0,VALID,97.0842,VALID,0,VALID,18.9424,VALID,140,VALID,1.14922,
2011-09-15, 03:37:04,VALID,917.491,VALID,0,VALID,97.0766,VALID,0,VALID,18.9229,VALID,144,VALID,0.674219,
2011-09-15, 03:38:04,VALID,917.515,VALID,0,VALID,97.0461,VALID,0,VALID,18.8839,VALID,169,VALID,0.896875,
2011-09-15, 03:39:04,VALID,917.507,VALID,0,VALID,97.069,VALID,0,VALID,18.8644,VALID,153,VALID,1.03203,
2011-09-15, 03:40:04,VALID,917.511,VALID,0,VALID,97.0537,VALID,0,VALID,18.8254,VALID,148,VALID,0.951563,
2011-09-15, 03:41:04,VALID,917.474,VALID,0,VALID,97.0537,VALID,0,VALID,18.8059,VALID,148,VALID,0.961328,
2011-09-15, 03:42:04,VALID,917.487,VALID,0,VALID,97.0385,VALID,0,VALID,18.8073,VALID,148,VALID,0.850781,
2011-09-15, 03:43:04,VALID,917.505,VALID,0,VALID,97.0308,VALID,0,VALID,18.7474,VALID,148,VALID,1.10938,
2011-09-15, 03:44:04,VALID,917.521,VALID,0,VALID,96.9698,VALID,0,VALID,18.7279,VALID,151,VALID,1.16797,